Location: ???? ???? ?????
(31.2680°N, 31.7283°E)
Time: 09:51:52
(UTC+00:00)

Ariane Rocket - Pass Details

Date: 13 July 2020
Orbit: 759 x 771 km, 98.7° (Epoch: 08 August)

Event Time Altitude Azimuth Distance (km) Brightness Sun altitude
Exits shadow 17:52:10 - 174° (S) 3,249 5.9 -10.7°
Rises 17:52:13 0° 174° (S) 3,227 5.9 -10.7°
Reaches altitude 10° 17:54:32 10° 177° (S) 2,303 5.1 -11.1°
Maximum altitude 17:59:34 63° 258° (WSW) 855 3.4 -12.0°
Drops below altitude 10° 18:04:37 10° 340° (NNW) 2,312 6.4 -12.8°
Sets 18:06:57 0° 343° (NNW) 3,240 7.1 -13.2°
